{"data":{"norad_id":53498,"intl_designator":"2022-099AK","name":"STARLINK-4439","alt_names":[],"object_type":"PAYLOAD","status":"ACTIVE","operator":null,"country":"US","launch_date":"2022-08-12","launch_site_code":"AFWTR","launch_vehicle":null,"mission":null,"orbit_class":"UNKNOWN","rcs_meters":null,"size_class":null,"mass_kg":null,"dimensions":null,"purposes":["comms"],"wikipedia_slug":null,"has_3d_model":false,"image_url":null,"decayed_at":null,"tle_current":{"epoch":"2026-09-20T06:33:10.465056Z","epoch_age_seconds":98668,"freshness":"FRESH","line1":"1 53498U 22099AK  26263.27303779  .00000946  00000+0  31628-4 0  9990","line2":"2 53498  97.2859  20.8949 0001164  99.5423 260.5952 15.33437935225514","mean_motion":15.33437935,"eccentricity":0.0001164,"inclination_deg":97.2859,"raan_deg":20.8949,"arg_perigee_deg":99.5423,"mean_anomaly_deg":260.5952,"bstar":3.1628e-5,"rev_number":22551,"period_min":93.906637310365,"perigee_km":464.76758820908,"apogee_km":466.36080184729,"semimajor_km":6843.7011950282,"source":"CELESTRAK","updated_at":"2026-09-21T09:00:32.895376Z"}}}